Bradford, PA

2:14 PM EDT on October 14, 2019 (GMT -0400)
Bradford Regional

Weather History for KBFD - August, 2019

Change the Weather History Date:

Sunday, August 18, 2019

  Actual Average Record
Temperature  
Mean Temperature 70 °F 64 °F  
Max Temperature 81 °F 76 °F 87 °F (1971)
Min Temperature 58 °F 52 °F 35 °F (1981)
Degree Days  
Heating Degree Days 0 1  
Month to date heating degree days 11 10  
Since 1 June heating degree days 145 219  
Since 1 July heating degree days 23 74  
Cooling Degree Days 5 2  
Month to date cooling degree days 46 36  
Year to date cooling degree days 236 160  
Since 1 June cooling degree days 229 150  
Growing Degree Days 19 (Base 50)    
Moisture  
Dew Point 64 °F    
Average Humidity 87    
Maximum Humidity 100    
Minimum Humidity 74    
Precipitation  
Precipitation 0.49 in 0.13 in 1.11 in (1973)
Month to date precipitation 3.65 2.40  
Year to date precipitation 31.62 28.24  
Sea Level Pressure  
Sea Level Pressure 30.02 in    
Wind  
Wind Speed 3 mph (South)    
Max Wind Speed 14 mph    
Max Gust Speed 21 mph    
Visibility 6 miles    
Events Rain , Thunderstorm    
T = Trace of Precipitation, MM = Missing Value Source: NWS Daily Summary

Daily Weather History Graph

Daily Weather History Graph

Search for Another Location

Airport or City:

Astronomy

Aug. 18, 2019 Rise Set
Actual Time 6:25 AM EDT 8:10 PM EDT
Civil Twilight 5:55 AM EDT 8:40 PM EDT
Nautical Twilight 5:19 AM EDT 9:16 PM EDT
Astronomical Twilight 4:41 AM EDT 9:54 PM EDT
Moon 10:02 PM EDT (8/18) 9:10 AM EDT (8/18)
Length of Visible Light 14h 44m
Length of Day
13h 44m
Waning Gibbous, 91% of the Moon is Illuminated
Aug 18
Waning Gibbous
Aug 23
Last Quarter
Aug 30
New
Sep 5
First Quarter
Sep 14
Full

Hourly Weather History & Observations

Time (EDT) Temp. Heat Index Dew Point Humidity Pressure Visibility Wind Dir Wind Speed Gust Speed Precip Events Conditions
12:53 AM 64.0 °F - 62.1 °F 93% 30.01 in 10.0 mi Calm Calm - N/A   Clear
1:35 AM 61.0 °F - 61.0 °F 100% 30.05 in 1.8 mi Calm Calm - N/A   Partly Cloudy
1:46 AM 61.0 °F - 61.0 °F 100% 30.05 in 3.0 mi Calm Calm - N/A   Scattered Clouds
1:50 AM 60.8 °F - 60.8 °F 100% 30.05 in 1.8 mi Calm Calm - N/A   Scattered Clouds
1:53 AM 61.0 °F - 61.0 °F 100% 30.00 in 1.2 mi Calm Calm - N/A   Partly Cloudy
2:03 AM 61.0 °F - 61.0 °F 100% 30.04 in 3.0 mi Calm Calm - N/A   Partly Cloudy
2:44 AM 60.1 °F - 60.1 °F 100% 30.04 in 1.8 mi Calm Calm - N/A   Clear
2:47 AM 60.8 °F - 59.0 °F 94% 30.04 in 1.0 mi Calm Calm - N/A   Mist
2:53 AM 60.1 °F - 60.1 °F 100% 30.01 in 1.0 mi Calm Calm - N/A   Mist
2:56 AM 60.1 °F - 60.1 °F 100% 30.05 in 2.0 mi Calm Calm - N/A   Clear
2:59 AM 60.1 °F - 60.1 °F 100% 30.05 in 4.0 mi Calm Calm - N/A   Partly Cloudy
3:03 AM 60.1 °F - 59.0 °F 96% 30.05 in 1.8 mi Calm Calm - N/A   Partly Cloudy
3:17 AM 60.1 °F - 60.1 °F 100% 30.05 in 3.0 mi Calm Calm - N/A   Partly Cloudy
3:36 AM 59.0 °F - 59.0 °F 100% 30.05 in 1.5 mi Calm Calm - N/A   Clear
3:44 AM 59.0 °F - 57.9 °F 96% 30.05 in 1.0 mi SE 3.5 mph - N/A   Mist
3:48 AM 59.0 °F - 57.2 °F 94% 30.05 in 2.0 mi SE 3.5 mph - N/A   Partly Cloudy
3:53 AM 59.0 °F - 59.0 °F 100% 30.03 in 1.8 mi Calm Calm - N/A   Partly Cloudy
4:03 AM 59.0 °F - 57.9 °F 96% 30.04 in 3.0 mi Calm Calm - N/A   Partly Cloudy
4:53 AM 59.0 °F - 59.0 °F 100% 30.02 in 5.0 mi Calm Calm - N/A   Clear
5:05 AM 59.0 °F - 59.0 °F 100% 30.04 in 2.0 mi ESE 3.5 mph - N/A   Partly Cloudy
5:21 AM 57.9 °F - 57.9 °F 100% 30.04 in 4.0 mi ESE 4.6 mph - N/A   Partly Cloudy
5:53 AM 57.9 °F - 57.9 °F 100% 30.01 in 4.0 mi ESE 4.6 mph - N/A   Clear
6:53 AM 62.1 °F - 60.1 °F 93% 30.02 in 8.0 mi Calm Calm - N/A   Overcast
7:53 AM 64.9 °F - 64.0 °F 97% 30.03 in 9.0 mi Calm Calm - N/A   Mostly Cloudy
8:53 AM 70.0 °F - 66.9 °F 90% 30.02 in 10.0 mi ESE 3.5 mph - N/A   Scattered Clouds
9:53 AM 72.0 °F - 68.0 °F 87% 30.03 in 10.0 mi SSE 5.8 mph - N/A   Mostly Cloudy
10:53 AM 75.9 °F - 66.9 °F 74% 30.00 in 10.0 mi South 6.9 mph - 0.00 in   Scattered Clouds
11:53 AM 75.9 °F - 68.0 °F 76% 30.01 in 10.0 mi Variable 6.9 mph - N/A   Clear
12:22 PM 77.0 °F - 66.9 °F 71% 30.06 in 10.0 mi WSW 6.9 mph - N/A Thunderstorm Mostly Cloudy
12:28 PM 75.0 °F - 68.0 °F 79% 30.06 in 1.5 mi Variable 4.6 mph - 0.08 in Rain , Thunderstorm Heavy Thunderstorms and Rain
12:45 PM 70.0 °F - 66.0 °F 87% 30.06 in 0.8 mi SW 8.1 mph 17.3 mph 0.29 in Rain , Thunderstorm Heavy Thunderstorms and Rain
12:50 PM 69.8 °F - 66.2 °F 88% 30.06 in 2.0 mi WSW 4.6 mph - 0.30 in Rain , Thunderstorm Light Thunderstorms and Rain
12:53 PM 69.1 °F - 66.0 °F 90% 30.01 in 6.0 mi WSW 4.6 mph - 0.30 in Rain , Thunderstorm Light Thunderstorms and Rain
1:37 PM 68.0 °F - 66.0 °F 93% 30.05 in 10.0 mi South 6.9 mph - 0.02 in Thunderstorm Partly Cloudy
1:49 PM 68.0 °F - 66.2 °F 94% 30.04 in 10.0 mi SSE 3.5 mph - 0.02 in   Partly Cloudy
1:53 PM 70.0 °F - 66.9 °F 90% 30.00 in 10.0 mi South 3.5 mph - 0.02 in   Clear
2:53 PM 71.1 °F - 68.0 °F 90% 30.00 in 10.0 mi South 5.8 mph - N/A   Clear
3:53 PM 78.1 °F - 70.0 °F 76% 29.98 in 10.0 mi SW 5.8 mph - N/A   Partly Cloudy
4:01 PM 78.1 °F - 70.0 °F 76% 30.04 in 2.0 mi Variable 5.8 mph - 0.05 in Rain , Thunderstorm Thunderstorms and Rain
4:08 PM 75.0 °F - 66.9 °F 76% 30.02 in 1.2 mi North 13.8 mph - 0.09 in Rain , Thunderstorm Light Thunderstorms and Rain
4:12 PM 73.0 °F - 64.9 °F 76% 30.04 in 4.0 mi NNW 10.4 mph - 0.09 in Rain , Thunderstorm Light Thunderstorms and Rain
4:31 PM 75.9 °F - 68.0 °F 76% 30.02 in 10.0 mi Variable 3.5 mph - 0.09 in Thunderstorm Mostly Cloudy
4:53 PM 80.1 °F 83.8 °F 72.0 °F 76% 29.98 in 10.0 mi Calm Calm - 0.09 in Thunderstorm Scattered Clouds
5:01 PM 81.0 °F 84.9 °F 71.1 °F 72% 30.02 in 10.0 mi Variable 6.9 mph - N/A   Scattered Clouds
5:36 PM 78.1 °F - 70.0 °F 76% 30.01 in 10.0 mi Variable 4.6 mph - N/A Thunderstorm Thunderstorm
5:53 PM 78.1 °F - 71.1 °F 79% 29.98 in 10.0 mi North - - 0.00 in Rain , Thunderstorm Light Thunderstorms and Rain
6:05 PM 77.0 °F - 68.0 °F 74% 30.01 in 10.0 mi NW 4.6 mph - 0.00 in Rain Light Rain
6:46 PM 77.0 °F - 69.1 °F 76% 30.02 in 10.0 mi SSE 3.5 mph - 0.00 in Thunderstorm Clear
6:53 PM 77.0 °F - 68.0 °F 74% 29.99 in 10.0 mi South 3.5 mph - 0.00 in Thunderstorm Clear
7:01 PM 75.9 °F - 69.1 °F 79% 30.03 in 10.0 mi SSE 4.6 mph - N/A   Scattered Clouds
7:29 PM 72.0 °F - 64.0 °F 76% 30.05 in 10.0 mi South 5.8 mph - 0.00 in Thunderstorm Mostly Cloudy
7:40 PM 71.1 °F - 64.0 °F 78% 30.05 in 10.0 mi South 8.1 mph - 0.00 in Thunderstorm Thunderstorm
7:50 PM 68.0 °F - 64.4 °F 88% 30.03 in 2.0 mi South 9.2 mph - 0.05 in Rain , Thunderstorm Light Thunderstorms and Rain
7:53 PM 68.0 °F - 64.9 °F 90% 29.99 in 3.0 mi Variable 6.9 mph - 0.06 in Rain , Thunderstorm Light Thunderstorms and Rain
8:06 PM 66.9 °F - 64.9 °F 93% 30.03 in 10.0 mi South 4.6 mph - 0.00 in Rain , Thunderstorm Light Rain
8:19 PM 66.9 °F - 64.9 °F 93% 30.03 in 10.0 mi SSE 4.6 mph - 0.00 in Rain Light Rain
8:53 PM 66.9 °F - 63.0 °F 87% 29.96 in 10.0 mi South 8.1 mph - 0.02 in Rain Light Rain
9:53 PM 66.0 °F - 63.0 °F 90% 29.93 in 10.0 mi SSE 5.8 mph - 0.00 in   Partly Cloudy
10:53 PM 63.0 °F - 61.0 °F 93% 29.94 in 10.0 mi Calm Calm - N/A   Clear
11:53 PM 66.0 °F - 60.1 °F 81% 29.96 in 10.0 mi Variable 3.5 mph - N/A   Clear